This demonstration page uses our WeatherBlox Daily Observations layout. Learn more.

Left ArrowRight Arrow

Hourly Observations for May 14, 2018

Temp ( °F °C ) Dew Point ( °F °C ) Humidity (%) Winds ( mph kmh ) Pressure ( in mb ) Visibility ( mi km ) Precip ( " mm )
12:51 am 00:51 Clear 70 21.1 21 -6.1 16 16 NNW 7 11 29.78 1009 10 16 0.00 0.00
1:51 am 01:51 Clear 67 19.4 24 -4.4 20 20 undefined N/A 29.78 1009 10 16 0.00 0.00
2:51 am 02:51 Clear 64 17.8 22 -5.6 20 20 WSW 7 11 29.80 1009 10 16 0.00 0.00
3:51 am 03:51 Clear 64 17.8 22 -5.6 20 20 Calm 29.80 1009 10 16 0.00 0.00
4:51 am 04:51 Clear 58 14.4 21 -6.1 24 24 SE 3 6 29.82 1010 10 16 0.00 0.00
5:51 am 05:51 Sunny 59 15 20 -6.7 22 22 Calm 29.85 1011 10 16 0.00 0.00
6:51 am 06:51 Sunny 67 19.4 21 -6.1 17 17 Calm 29.85 1011 10 16 0.00 0.00
7:51 am 07:51 Sunny 71 21.7 22 -5.6 16 16 Calm 29.85 1011 10 16 0.00 0.00
8:51 am 08:51 Sunny 75 23.9 23 -5 14 14 VRB 3 6 29.85 1011 10 16 0.00 0.00
9:51 am 09:51 Sunny 81 27.2 31 -0.6 16 16 VRB 6 9 29.83 1010 10 16 0.00 0.00
10:51 am 10:51 Sunny 83 28.3 31 -0.6 15 15 SSW 6 9 29.82 1010 10 16 0.00 0.00
11:51 am 11:51 Sunny 85 29.4 32 0 15 15 Calm 29.80 1009 10 16 0.00 0.00
12:51 pm 12:51 Sunny 89 31.7 31 -0.6 12 12 VRB 5 7 29.77 1008 10 16 0.00 0.00
1:51 pm 13:51 Sunny 94 34.4 28 -2.2 9 9 WNW 20 31 29.74 1007 10 16 0.00 0.00
2:51 pm 14:51 Sunny 92 33.3 28 -2.2 10 10 VRB 6 9 29.72 1006 10 16 0.00 0.00
3:51 pm 15:51 Sunny 93 33.9 24 -4.4 8 8 W 13 20 29.68 1005 10 16 0.00 0.00
4:51 pm 16:51 Sunny 93 33.9 23 -5 8 8 WNW 20 31 29.68 1005 10 16 0.00 0.00
5:51 pm 17:51 Sunny 91 32.8 22 -5.6 8 8 WSW 13 20 29.69 1006 10 16 0.00 0.00
6:51 pm 18:51 Sunny 88 31.1 22 -5.6 9 9 W 14 22 29.69 1005 10 16 0.00 0.00
7:51 pm 19:51 Clear 84 28.9 22 -5.6 10 10 W 13 20 29.70 1006 10 16 0.00 0.00
8:51 pm 20:51 Clear 81 27.2 22 -5.6 11 11 NW 10 17 29.73 1007 10 16 0.00 0.00
9:51 pm 21:51 Clear 77 25 26 -3.3 15 15 NW 10 17 29.76 1008 10 16 0.00 0.00
10:51 pm 22:51 Clear 76 24.4 29 -1.7 18 18 NNW 10 17 29.77 1008 10 16 0.00 0.00
11:51 pm 23:51 Clear 74 23.3 28 -2.2 18 18 WNW 14 22 29.78 1009 10 16 0.00 0.00

Powered by AerisWeather